sat.trackr.live / text

‹ back to catalog

STARLINK-37461

NORAD 69173 · 2026-111AB

PAYLOAD ACTIVE UNKNOWN

§ Identity

Operator
Country
US
Launch date
2026-05-21
Launch site
AFETR
Launch vehicle
Mass (kg)
RCS (m²)

Purposes: comms

External: N2YO · Heavens-Above · Gunter

§ Orbital elements

Epoch: 2026-09-20T01:25:02.508384Z

Period
93.85 min
Inclination
53.1590°
Eccentricity
0.0001493
Mean motion
15.34398139 rev/d
Perigee alt
461.7 km
Apogee alt
463.7 km
Semi-major
6,840.8 km
B*
4.9702e-4
RAAN
67.6195°
Arg perigee
123.2683°
Mean anomaly
236.8463°
Rev number
1,883

§ Raw data

STARLINK-374611 69173U 26111AB  26263.05905681  .00016452  00000+0  49702-3 0  99922 69173  53.1590  67.6195 0001493 123.2683 236.8463 15.34398139 18835

JSON: /api/v1/satellites/69173 · /tle

For live sub-satellite position, see the globe view (requires WebGL).

§ Visibility from observer

Set your observer location to see the next 7 days of passes ≥ 10°. The values pass through the URL so the page stays shareable.

No JS? Fill the form by hand. The geolocation button needs JavaScript.